Location: Kunchanapalle
(16.4623°N, 80.6176°E)
Time: 09:49:44
(UTC+00:00)

Okean-O - Pass Details

Date: 13 August 2020
Orbit: 639 x 640 km, 98.2° (Epoch: 18 September)

Event Time Altitude Azimuth Distance (km) Brightness Sun altitude
Rises 13:32:22 0° 176° (S) 2,931 5.8 -7.5°
Reaches altitude 10° 13:34:36 10° 180° (S) 2,023 5.0 -8.0°
Maximum altitude 13:38:55 56° 259° (WSW) 761 3.4 -9.0°
Drops below altitude 10° 13:43:15 10° 337° (NNW) 2,027 5.8 -10.0°
Sets 13:45:30 0° 342° (NNW) 2,936 6.6 -10.5°
